Location: Tamazert
(32.6352°N, 5.2072°W)
Time: 04:12:40
(UTC+00:00)

Vanguard 2 - Pass Details

Date: 10 October 2022
Orbit: 553 x 2933 km, 32.9° (Epoch: 04 December)

Event Time Altitude Azimuth Distance (km) Brightness Sun altitude
Rises 10:34:20 0° 239° (WSW) 3,384 10.8 44.8°
Reaches altitude 10° 10:36:25 10° 235° (SW) 2,650 10.4 45.0°
Maximum altitude 10:42:46 62° 156° (SSE) 1,440 10.8 45.7°
Drops below altitude 10° 10:53:34 10° 79° (E) 4,382 11.7 46.9°
Sets 10:58:00 0° 77° (ENE) 5,762 12.1 47.3°
